Location: Normandy Village
(37.8755°N, 122.2655°W)
Time: 23:09:18
(UTC+00:00)

Shenzhou-11 Module - Pass Details

Date: 15 December 2019
Orbit: 302 x 315 km, 42.8° (Epoch: 23 January)

Event Time Altitude Azimuth Distance (km) Brightness Sun altitude
Rises 01:34:57 0° 289° (WNW) 2,067 6.6 -8.7°
Reaches altitude 10° 01:36:59 10° 283° (WNW) 1,230 5.5 -9.1°
Maximum altitude 01:39:38 44° 209° (SSW) 452 2.8 -9.5°
Drops below altitude 10° 01:42:16 10° 134° (SE) 1,217 4.4 -10.0°
Enters shadow 01:43:44 - 129° (SE) 1,819 5.2 -10.3°
